Back to catalog

SL-16 DEB

AliveLEO
NORAD 24284·DEBRIS·🇷🇺 Russia

Launched Oct 31, 1995 from Baikonur Cosmodrome

Loading…

Next Passes (next 24 hours)

TLE

FreshSource: Space-Track

Epoch: Sep 14, 2026, 13:13 UTC

1 24284U 95058G   26257.55128898  .00000307  00000-0  16531-3 0  9994
2 24284  70.8616 210.4346 0012787 346.9506  13.1286 14.20595294596437

Track SL-16 DEB in real time with AllMySat

Download on the App Store